Powrót do katalogu

EUTE 7B

EUTE 3D

AktywnyŁącznośćGEO
NORAD 39163·PAYLOAD·🇪🇺 EU

Wystrzelony May 14, 2013 z Baikonur Cosmodrome

Loading…

TLE

ŚwieżeSource: Space-Track

Epoka: Sep 14, 2026, 13:52 UTC

1 39163U 13022A   26257.57830770  .00000096  00000-0  00000-0 0  9994
2 39163   0.0674 344.4985 0004932 119.1991 114.0513  1.00271678 48848

Śledź EUTE 7B w czasie rzeczywistym z AllMySat

Download on the App Store